Hourly Weather Aga-Batyr

Today, 7 March, Sunday

Time Temperature Precipitation Wind Pressure Humidity
00:00 +9°C° 0 mm 3 mps 748 mmHg 49%
01:00 +7°C° 0 mm 6 mps 749 mmHg 56%
02:00 +5°C° 0 mm 8 mps 749 mmHg 64%
03:00 +2°C° 0 mm 12 mps 751 mmHg 70%
04:00 +1°C° 0 mm 11 mps 752 mmHg 70%
05:00 -1°C° 0 mm 9 mps 753 mmHg 70%
06:00 -2°C° 0 mm 7 mps 755 mmHg 70%
07:00 -2°C° 0 mm 7 mps 755 mmHg 66%
08:00 -2°C° 0 mm 6 mps 756 mmHg 62%
09:00 -1°C° 0 mm 5 mps 757 mmHg 57%
10:00 0°C° 0 mm 5 mps 756 mmHg 48%
11:00 0°C° 0 mm 4 mps 756 mmHg 38%
12:00 +1°C° 0 mm 4 mps 756 mmHg 29%
13:00 +3°C° 0 mm 3 mps 755 mmHg 28%
14:00 +3°C° 0 mm 3 mps 755 mmHg 27%
15:00 +3°C° 0 mm 3 mps 755 mmHg 23%
16:00 +3°C° 0 mm 2 mps 755 mmHg 26%
17:00 +3°C° 0 mm 2 mps 755 mmHg 29%
18:00 +2°C° 0 mm 2 mps 755 mmHg 32%
19:00 +2°C° 0 mm 2 mps 755 mmHg 34%
20:00 +1°C° 0 mm 2 mps 755 mmHg 36%
21:00 +1°C° 0 mm 2 mps 755 mmHg 38%
22:00 -1°C° 0 mm 2 mps 755 mmHg 40%
23:00 -1°C° 0 mm 3 mps 754 mmHg 43%

Tomorrow, 8 March, Monday

Time Temperature Precipitation Wind Pressure Humidity
00:00 -2°C° 0 mm 3 mps 754 mmHg 45%
01:00 -2°C° 0 mm 3 mps 754 mmHg 47%
02:00 -2°C° 0 mm 2 mps 754 mmHg 49%
03:00 -2°C° 0 mm 2 mps 754 mmHg 51%
04:00 -2°C° 0 mm 2 mps 754 mmHg 52%
05:00 -2°C° 0 mm 2 mps 754 mmHg 54%
06:00 -2°C° 0 mm 2 mps 754 mmHg 55%
07:00 -1°C° 0 mm 2 mps 754 mmHg 51%
08:00 +1°C° 0 mm 2 mps 753 mmHg 47%
09:00 +2°C° 0 mm 2 mps 753 mmHg 43%
10:00 +3°C° 0 mm 2 mps 752 mmHg 41%
11:00 +4°C° 0 mm 2 mps 752 mmHg 39%
12:00 +5°C° 0 mm 2 mps 751 mmHg 37%
13:00 +5°C° 0 mm 2 mps 751 mmHg 38%
14:00 +6°C° 0 mm 2 mps 751 mmHg 38%
15:00 +6°C° 0 mm 2 mps 750 mmHg 39%
16:00 +5°C° 0 mm 2 mps 750 mmHg 44%
17:00 +6°C° 0 mm 1 mps 751 mmHg 49%
18:00 +5°C° 0 mm 1 mps 751 mmHg 53%
19:00 +4°C° 0 mm 2 mps 751 mmHg 58%
20:00 +3°C° 0 mm 2 mps 751 mmHg 62%
21:00 +3°C° 0 mm 2 mps 752 mmHg 66%
22:00 +2°C° 0 mm 2 mps 751 mmHg 73%
23:00 +2°C° 0 mm 2 mps 751 mmHg 80%

Day after tomorrow, 9 March, Tuesday

Time Temperature Precipitation Wind Pressure Humidity
00:00 +1°C° 0 mm 2 mps 751 mmHg 87%
01:00 +1°C° 0 mm 2 mps 751 mmHg 87%
02:00 +2°C° 0 mm 1 mps 751 mmHg 87%
03:00 +1°C° 0 mm 1 mps 751 mmHg 87%
04:00 +1°C° 0 mm 1 mps 751 mmHg 85%
05:00 +1°C° 0 mm 1 mps 750 mmHg 83%
06:00 +1°C° 0 mm 1 mps 750 mmHg 81%
07:00 +2°C° 0 mm 1 mps 750 mmHg 73%
08:00 +4°C° 0 mm 1 mps 750 mmHg 66%
09:00 +5°C° 0 mm 1 mps 750 mmHg 58%
10:00 +6°C° 0 mm 1 mps 750 mmHg 53%
11:00 +7°C° 0 mm 1 mps 750 mmHg 47%
12:00 +7°C° 0 mm 0 mps 750 mmHg 42%
13:00 +8°C° 0 mm 1 mps 749 mmHg 41%
14:00 +9°C° 0 mm 1 mps 749 mmHg 40%
15:00 +9°C° 0 mm 1 mps 749 mmHg 38%
16:00 +9°C° 0 mm 1 mps 749 mmHg 41%
17:00 +8°C° 0 mm 1 mps 750 mmHg 44%
18:00 +8°C° 0 mm 1 mps 750 mmHg 47%
19:00 +5°C° 0 mm 3 mps 751 mmHg 58%
20:00 +4°C° 0 mm 4 mps 751 mmHg 69%
21:00 +2°C° 0 mm 5 mps 752 mmHg 80%
22:00 +1°C° 0 mm 5 mps 752 mmHg 81%
23:00 +1°C° 0 mm 4 mps 753 mmHg 81%

10 March, Wednesday

Time Temperature Precipitation Wind Pressure Humidity
00:00 +1°C° 0 mm 4 mps 753 mmHg 82%
01:00 0°C° 0.1 mm 4 mps 753 mmHg 83%
02:00 0°C° 0.1 mm 4 mps 754 mmHg 84%
03:00 0°C° 0.1 mm 4 mps 754 mmHg 85%
04:00 -1°C° 0.1 mm 4 mps 754 mmHg 79%
05:00 -1°C° 0.1 mm 4 mps 755 mmHg 72%
06:00 -1°C° 0.1 mm 3 mps 755 mmHg 66%
07:00 -1°C° 0 mm 4 mps 755 mmHg 62%
08:00 -1°C° 0 mm 4 mps 756 mmHg 58%
09:00 0°C° 0 mm 4 mps 756 mmHg 54%
10:00 +1°C° 0 mm 4 mps 756 mmHg 51%
11:00 +1°C° 0 mm 4 mps 755 mmHg 49%
12:00 +3°C° 0 mm 4 mps 755 mmHg 46%
13:00 +3°C° 0 mm 4 mps 755 mmHg 45%
14:00 +4°C° 0 mm 3 mps 755 mmHg 44%
15:00 +4°C° 0 mm 3 mps 754 mmHg 43%
16:00 +3°C° 0 mm 3 mps 754 mmHg 45%
17:00 +3°C° 0 mm 3 mps 754 mmHg 46%
18:00 +2°C° 0 mm 3 mps 754 mmHg 47%
19:00 +1°C° 0 mm 3 mps 754 mmHg 47%
20:00 0°C° 0 mm 4 mps 754 mmHg 48%
21:00 -1°C° 0 mm 5 mps 754 mmHg 48%
22:00 -1°C° 0 mm 5 mps 753 mmHg 49%
23:00 -1°C° 0 mm 5 mps 753 mmHg 49%

11 March, Thursday

Time Temperature Precipitation Wind Pressure Humidity
00:00 -1°C° 0 mm 5 mps 753 mmHg 50%
01:00 -2°C° 0 mm 5 mps 752 mmHg 52%
02:00 -2°C° 0 mm 5 mps 752 mmHg 54%
03:00 -3°C° 0 mm 6 mps 752 mmHg 55%
04:00 -4°C° 0.4 mm 6 mps 752 mmHg 68%
05:00 -5°C° 0.4 mm 6 mps 752 mmHg 80%
06:00 -6°C° 0.4 mm 6 mps 752 mmHg 93%
07:00 -6°C° 0.7 mm 6 mps 752 mmHg 93%
08:00 -7°C° 0.7 mm 7 mps 752 mmHg 92%
09:00 -6°C° 0.7 mm 7 mps 752 mmHg 92%
10:00 -6°C° 0.6 mm 8 mps 751 mmHg 92%
11:00 -6°C° 0.6 mm 8 mps 751 mmHg 92%
12:00 -6°C° 0.6 mm 9 mps 751 mmHg 92%
13:00 -6°C° 0.7 mm 9 mps 751 mmHg 92%
14:00 -8°C° 0.7 mm 9 mps 751 mmHg 92%
15:00 -7°C° 0.7 mm 8 mps 751 mmHg 92%
16:00 -8°C° 0.8 mm 8 mps 752 mmHg 93%
17:00 -10°C° 0.8 mm 8 mps 752 mmHg 93%
18:00 -9°C° 0.8 mm 7 mps 753 mmHg 94%
19:00 -9°C° 0.6 mm 7 mps 754 mmHg 94%
20:00 -10°C° 0.6 mm 6 mps 754 mmHg 94%
21:00 -10°C° 0.6 mm 5 mps 755 mmHg 94%
22:00 -10°C° 0.4 mm 5 mps 755 mmHg 94%
23:00 -10°C° 0.4 mm 5 mps 755 mmHg 95%

12 March, Friday

Time Temperature Precipitation Wind Pressure Humidity
00:00 -10°C° 0.4 mm 5 mps 755 mmHg 95%
01:00 -10°C° 0.2 mm 5 mps 756 mmHg 94%
02:00 -9°C° 0.2 mm 4 mps 756 mmHg 94%
03:00 -10°C° 0.2 mm 4 mps 757 mmHg 93%
04:00 -10°C° 0.1 mm 4 mps 757 mmHg 91%
05:00 -10°C° 0.1 mm 4 mps 758 mmHg 88%
06:00 -10°C° 0.1 mm 3 mps 759 mmHg 86%
07:00 -10°C° 0 mm 4 mps 759 mmHg 81%
08:00 -10°C° 0 mm 4 mps 760 mmHg 76%
09:00 -10°C° 0 mm 4 mps 760 mmHg 72%
10:00 -9°C° 0 mm 4 mps 760 mmHg 70%
11:00 -8°C° 0 mm 3 mps 760 mmHg 68%
12:00 -7°C° 0 mm 3 mps 760 mmHg 66%
13:00 -7°C° 0 mm 3 mps 760 mmHg 65%
14:00 -7°C° 0 mm 3 mps 760 mmHg 65%
15:00 -5°C° 0 mm 2 mps 760 mmHg 64%
16:00 -7°C° 0 mm 2 mps 760 mmHg 67%
17:00 -8°C° 0 mm 2 mps 760 mmHg 70%
18:00 -9°C° 0 mm 2 mps 761 mmHg 73%
19:00 -10°C° 0 mm 2 mps 761 mmHg 74%
20:00 -9°C° 0 mm 1 mps 761 mmHg 74%
21:00 -10°C° 0 mm 1 mps 761 mmHg 75%
22:00 -12°C° 0 mm 2 mps 761 mmHg 78%
23:00 -13°C° 0 mm 2 mps 761 mmHg 81%
Show more